| time (UTC) | temp C | wind direction | speed KPH | gust KPH | rain 1hr cm | rain 24hr cm | rain mn cm | humidity % | barometer mb |
| 20260509125030 | 16 | 0 | 0.0 | 4.8 | 0.00 | 0.00 | 0.00 | 88 | 1012.2 |
| 20260509124540 | 16 | 0 | 0.0 | 4.8 | 0.00 | 0.00 | 0.00 | 88 | 1012.0 |
| 20260509124031 | 16 | 0 | 0.0 | 4.8 | 0.00 | 0.00 | 0.00 | 88 | 1011.9 |
| 20260509123531 | 16 | 0 | 1.6 | 4.8 | 0.00 | 0.00 | 0.00 | 88 | 1011.9 |
| 20260509123049 | 16 | 0 | 0.0 | 1.6 | 0.00 | 0.00 | 0.00 | 88 | 1011.8 |
| 20260509122530 | 16 | 0 | 0.0 | 1.6 | 0.00 | 0.00 | 0.00 | 88 | 1011.8 |
| 20260509122032 | 16 | 0 | 0.0 | 0.0 | 0.00 | 0.00 | 0.00 | 88 | 1011.8 |
| 20260509121544 | 16 | 0 | 0.0 | 0.0 | 0.00 | 0.00 | 0.00 | 88 | 1011.8 |
| 20260509121030 | 16 | 0 | 0.0 | 0.0 | 0.00 | 0.00 | 0.00 | 88 | 1011.8 |
| 20260509120531 | 16 | 0 | 0.0 | 0.0 | 0.00 | 0.00 | 0.00 | 89 | 1011.8 |
| 20260509120043 | 15 | 0 | 0.0 | 0.0 | 0.00 | 0.00 | 0.00 | 88 | 1011.8 |
| 20260509115533 | 15 | 0 | 0.0 | 1.6 | 0.00 | 0.00 | 0.00 | 88 | 1012.0 |
| 20260509115032 | 15 | 0 | 0.0 | 1.6 | 0.00 | 0.00 | 0.00 | 88 | 1011.9 |
| 20260509114543 | 15 | 0 | 0.0 | 1.6 | 0.00 | 0.00 | 0.00 | 88 | 1012.0 |
| 20260509114029 | 15 | 0 | 0.0 | 3.2 | 0.00 | 0.00 | 0.00 | 89 | 1012.0 |
| 20260509113529 | 15 | 0 | 0.0 | 4.8 | 0.00 | 0.00 | 0.00 | 89 | 1012.0 |
| 20260509113052 | 15 | 0 | 0.0 | 4.8 | 0.00 | 0.00 | 0.00 | 89 | 1012.1 |
| 20260509112531 | 15 | 178 | 1.6 | 4.8 | 0.00 | 0.00 | 0.00 | 89 | 1012.1 |
| 20260509112028 | 15 | 178 | 0.0 | 4.8 | 0.00 | 0.00 | 0.00 | 89 | 1012.1 |
| 20260509111547 | 15 | 178 | 1.6 | 4.8 | 0.00 | 0.00 | 0.00 | 89 | 1012.1 |
| 20260509111031 | 15 | 0 | 0.0 | 4.8 | 0.00 | 0.00 | 0.00 | 89 | 1011.9 |
| 20260509110529 | 15 | 206 | 0.0 | 4.8 | 0.00 | 0.00 | 0.00 | 89 | 1012.0 |
| 20260509110047 | 15 | 206 | 0.0 | 3.2 | 0.00 | 0.00 | 0.00 | 89 | 1012.0 |
| 20260509105532 | 15 | 0 | 0.0 | 3.2 | 0.00 | 0.00 | 0.00 | 89 | 1011.9 |
| 20260509105030 | 15 | 0 | 0.0 | 3.2 | 0.00 | 0.00 | 0.00 | 89 | 1011.8 |
| 20260509104541 | 15 | 0 | 0.0 | 0.0 | 0.00 | 0.00 | 0.00 | 89 | 1011.8 |
| 20260509104028 | 15 | 0 | 0.0 | 8.0 | 0.00 | 0.00 | 0.00 | 89 | 1011.6 |
| 20260509103528 | 15 | 0 | 1.6 | 8.0 | 0.00 | 0.00 | 0.00 | 89 | 1011.4 |
| 20260509103052 | 15 | 194 | 0.0 | 4.8 | 0.00 | 0.00 | 0.00 | 89 | 1011.7 |
| 20260509102531 | 15 | 0 | 0.0 | 3.2 | 0.00 | 0.00 | 0.00 | 88 | 1011.6 |
| 20260509102032 | 15 | 0 | 0.0 | 3.2 | 0.00 | 0.00 | 0.00 | 89 | 1011.8 |
| 20260509101540 | 15 | 0 | 0.0 | 3.2 | 0.00 | 0.00 | 0.00 | 89 | 1011.6 |
| 20260509101028 | 15 | 0 | 0.0 | 3.2 | 0.00 | 0.00 | 0.00 | 89 | 1011.8 |
| 20260509100532 | 15 | 0 | 0.0 | 3.2 | 0.00 | 0.00 | 0.00 | 89 | 1011.8 |
| 20260509100108 | 15 | 0 | 0.0 | 3.2 | 0.00 | 0.00 | 0.00 | 89 | 1011.8 |
| 20260509095531 | 15 | 0 | 0.0 | 0.0 | 0.00 | 0.00 | 0.00 | 89 | 1012.1 |
| 20260509095030 | 15 | 0 | 0.0 | 0.0 | 0.00 | 0.00 | 0.00 | 89 | 1012.1 |
| 20260509094551 | 15 | 0 | 0.0 | 0.0 | 0.00 | 0.00 | 0.00 | 88 | 1012.2 |
| 20260509094030 | 14 | 0 | 0.0 | 0.0 | 0.00 | 0.00 | 0.00 | 89 | 1012.3 |
| 20260509093532 | 14 | 0 | 0.0 | 0.0 | 0.00 | 0.00 | 0.00 | 89 | 1012.2 |
| 20260509093044 | 14 | 0 | 0.0 | 0.0 | 0.00 | 0.00 | 0.00 | 88 | 1012.3 |
| 20260509092528 | 14 | 0 | 0.0 | 0.0 | 0.00 | 0.00 | 0.00 | 88 | 1012.0 |
| 20260509092031 | 14 | 0 | 0.0 | 0.0 | 0.00 | 0.00 | 0.00 | 88 | 1012.1 |
| 20260509091544 | 14 | 0 | 0.0 | 0.0 | 0.00 | 0.00 | 0.00 | 88 | 1012.0 |
| 20260509091029 | 14 | 0 | 0.0 | 0.0 | 0.00 | 0.00 | 0.00 | 88 | 1012.1 |
| 20260509090529 | 14 | 0 | 0.0 | 0.0 | 0.00 | 0.00 | 0.00 | 88 | 1011.9 |
| 20260509090043 | 14 | 0 | 0.0 | 0.0 | 0.00 | 0.00 | 0.00 | 88 | 1011.9 |
| 20260509085528 | 14 | 0 | 0.0 | 0.0 | 0.00 | 0.00 | 0.00 | 88 | 1012.1 |
| 20260509085031 | 14 | 0 | 0.0 | 0.0 | 0.00 | 0.00 | 0.00 | 88 | 1012.1 |
| 20260509084538 | 14 | 0 | 0.0 | 0.0 | 0.00 | 0.00 | 0.00 | 88 | 1012.0 |
| 20260509084028 | 14 | 0 | 0.0 | 0.0 | 0.00 | 0.00 | 0.00 | 88 | 1012.0 |
| 20260509083531 | 14 | 0 | 0.0 | 0.0 | 0.00 | 0.00 | 0.00 | 88 | 1011.9 |
| 20260509083046 | 14 | 0 | 0.0 | 0.0 | 0.00 | 0.00 | 0.00 | 88 | 1011.9 |
| 20260509082530 | 14 | 0 | 0.0 | 0.0 | 0.00 | 0.00 | 0.00 | 88 | 1011.9 |
| 20260509082029 | 14 | 0 | 0.0 | 0.0 | 0.00 | 0.00 | 0.00 | 88 | 1011.9 |
| 20260509081546 | 14 | 0 | 0.0 | 0.0 | 0.00 | 0.00 | 0.00 | 88 | 1012.0 |
| 20260509081031 | 14 | 0 | 0.0 | 0.0 | 0.00 | 0.00 | 0.00 | 88 | 1012.0 |
| 20260509080534 | 14 | 0 | 0.0 | 0.0 | 0.00 | 0.00 | 0.00 | 88 | 1012.0 |
| 20260509080048 | 14 | 0 | 0.0 | 0.0 | 0.00 | 0.00 | 0.00 | 88 | 1012.0 |
| 20260509075528 | 14 | 0 | 0.0 | 0.0 | 0.00 | 0.00 | 0.00 | 87 | 1011.8 |
| 20260509075028 | 14 | 0 | 0.0 | 0.0 | 0.00 | 0.00 | 0.00 | 87 | 1011.8 |
| 20260509074542 | 14 | 0 | 0.0 | 0.0 | 0.00 | 0.00 | 0.00 | 87 | 1011.8 |
| 20260509074032 | 14 | 0 | 0.0 | 0.0 | 0.00 | 0.00 | 0.00 | 88 | 1011.9 |
| 20260509073528 | 14 | 0 | 0.0 | 0.0 | 0.00 | 0.00 | 0.00 | 88 | 1011.9 |
| 20260509073045 | 14 | 0 | 0.0 | 0.0 | 0.00 | 0.00 | 0.00 | 88 | 1011.8 |
| 20260509072528 | 14 | 0 | 0.0 | 0.0 | 0.00 | 0.00 | 0.00 | 88 | 1011.9 |
| 20260509072031 | 13 | 0 | 0.0 | 0.0 | 0.00 | 0.00 | 0.00 | 88 | 1011.8 |
| 20260509071545 | 13 | 0 | 0.0 | 0.0 | 0.00 | 0.00 | 0.00 | 88 | 1011.8 |
| 20260509071028 | 13 | 0 | 0.0 | 0.0 | 0.00 | 0.00 | 0.00 | 87 | 1011.8 |
| 20260509070528 | 13 | 0 | 0.0 | 0.0 | 0.00 | 0.00 | 0.00 | 87 | 1011.6 |
| 20260509070041 | 13 | 0 | 0.0 | 0.0 | 0.00 | 0.00 | 0.00 | 87 | 1011.7 |
| 20260509065532 | 13 | 0 | 0.0 | 0.0 | 0.00 | 0.00 | 0.00 | 87 | 1011.7 |
| 20260509065030 | 13 | 0 | 0.0 | 0.0 | 0.00 | 0.00 | 0.00 | 86 | 1011.8 |
| 20260509064540 | 13 | 0 | 0.0 | 0.0 | 0.00 | 0.00 | 0.00 | 86 | 1012.0 |
| 20260509064032 | 13 | 0 | 0.0 | 0.0 | 0.00 | 0.00 | 0.00 | 86 | 1012.0 |
| 20260509063530 | 13 | 0 | 0.0 | 0.0 | 0.00 | 0.00 | 0.00 | 86 | 1012.1 |
| 20260509063042 | 13 | 0 | 0.0 | 0.0 | 0.00 | 0.00 | 0.00 | 86 | 1012.2 |
| 20260509062528 | 14 | 0 | 0.0 | 0.0 | 0.00 | 0.00 | 0.00 | 86 | 1012.3 |
| 20260509062028 | 14 | 0 | 0.0 | 0.0 | 0.00 | 0.00 | 0.00 | 86 | 1012.4 |
| 20260509061547 | 14 | 0 | 0.0 | 0.0 | 0.00 | 0.00 | 0.00 | 86 | 1012.5 |
| 20260509061033 | 14 | 0 | 0.0 | 0.0 | 0.00 | 0.00 | 0.00 | 86 | 1012.8 |
| 20260509060532 | 14 | 0 | 0.0 | 0.0 | 0.00 | 0.00 | 0.00 | 86 | 1013.0 |
| 20260509060043 | 14 | 0 | 0.0 | 0.0 | 0.00 | 0.00 | 0.00 | 86 | 1013.0 |
| 20260509055535 | 14 | 0 | 0.0 | 0.0 | 0.00 | 0.00 | 0.00 | 86 | 1013.1 |
| 20260509055030 | 14 | 0 | 0.0 | 0.0 | 0.00 | 0.00 | 0.00 | 86 | 1013.1 |
| 20260509054550 | 13 | 0 | 0.0 | 0.0 | 0.00 | 0.00 | 0.00 | 86 | 1013.2 |
| 20260509054028 | 13 | 0 | 0.0 | 0.0 | 0.00 | 0.00 | 0.00 | 86 | 1013.2 |
| 20260509053531 | 13 | 0 | 0.0 | 0.0 | 0.00 | 0.00 | 0.00 | 85 | 1013.3 |
| 20260509053055 | 13 | 0 | 0.0 | 0.0 | 0.00 | 0.00 | 0.00 | 85 | 1013.2 |
| 20260509052531 | 13 | 0 | 0.0 | 0.0 | 0.00 | 0.00 | 0.00 | 85 | 1013.2 |
| 20260509052028 | 13 | 0 | 0.0 | 0.0 | 0.00 | 0.00 | 0.00 | 84 | 1013.1 |
| 20260509051545 | 13 | 0 | 0.0 | 0.0 | 0.00 | 0.00 | 0.00 | 84 | 1013.1 |
| 20260509051034 | 13 | 0 | 0.0 | 0.0 | 0.00 | 0.00 | 0.00 | 84 | 1013.1 |
| 20260509050530 | 13 | 0 | 0.0 | 0.0 | 0.00 | 0.00 | 0.00 | 84 | 1013.0 |
| 20260509050041 | 13 | 0 | 0.0 | 0.0 | 0.00 | 0.00 | 0.00 | 84 | 1013.1 |
| 20260509045532 | 14 | 0 | 0.0 | 0.0 | 0.00 | 0.00 | 0.00 | 84 | 1013.1 |
| 20260509045032 | 14 | 0 | 0.0 | 0.0 | 0.00 | 0.00 | 0.00 | 83 | 1013.1 |
| 20260509044548 | 14 | 0 | 0.0 | 0.0 | 0.00 | 0.00 | 0.00 | 83 | 1013.0 |
| 20260509044027 | 14 | 0 | 0.0 | 0.0 | 0.00 | 0.00 | 0.00 | 83 | 1013.1 |
| 20260509043527 | 14 | 0 | 0.0 | 0.0 | 0.00 | 0.00 | 0.00 | 83 | 1013.0 |
| 20260509043042 | 14 | 0 | 0.0 | 0.0 | 0.00 | 0.00 | 0.00 | 83 | 1013.2 |
| 20260509042531 | 14 | 0 | 0.0 | 0.0 | 0.00 | 0.00 | 0.00 | 82 | 1013.3 |
| 20260509042031 | 14 | 0 | 0.0 | 0.0 | 0.00 | 0.00 | 0.00 | 82 | 1013.3 |
| 20260509041540 | 14 | 0 | 0.0 | 0.0 | 0.00 | 0.00 | 0.00 | 81 | 1013.3 |
| 20260509041032 | 14 | 0 | 0.0 | 0.0 | 0.00 | 0.00 | 0.00 | 81 | 1013.3 |
| 20260509040532 | 14 | 0 | 0.0 | 0.0 | 0.00 | 0.00 | 0.00 | 81 | 1013.2 |
| 20260509040044 | 15 | 0 | 0.0 | 0.0 | 0.00 | 0.00 | 0.00 | 80 | 1013.5 |
| 20260509035530 | 15 | 0 | 0.0 | 0.0 | 0.00 | 0.00 | 0.00 | 80 | 1013.6 |
| 20260509035031 | 15 | 0 | 0.0 | 0.0 | 0.00 | 0.00 | 0.00 | 80 | 1013.6 |
| 20260509034539 | 15 | 0 | 0.0 | 0.0 | 0.00 | 0.00 | 0.00 | 79 | 1013.6 |
| 20260509034030 | 15 | 0 | 0.0 | 0.0 | 0.00 | 0.00 | 0.00 | 79 | 1013.5 |
| 20260509033531 | 15 | 0 | 0.0 | 0.0 | 0.00 | 0.00 | 0.00 | 79 | 1013.9 |
| 20260509033035 | 15 | 0 | 0.0 | 0.0 | 0.00 | 0.00 | 0.00 | 78 | 1013.7 |
| 20260509032533 | 15 | 0 | 0.0 | 0.0 | 0.00 | 0.00 | 0.00 | 78 | 1013.8 |
| 20260509032031 | 15 | 0 | 0.0 | 0.0 | 0.00 | 0.00 | 0.00 | 77 | 1013.9 |
| 20260509031543 | 15 | 0 | 0.0 | 0.0 | 0.00 | 0.00 | 0.00 | 77 | 1013.9 |
| 20260509031028 | 15 | 0 | 0.0 | 0.0 | 0.00 | 0.00 | 0.00 | 76 | 1013.9 |
| 20260509030531 | 16 | 0 | 0.0 | 0.0 | 0.00 | 0.00 | 0.00 | 76 | 1013.9 |
| 20260509030040 | 16 | 0 | 0.0 | 0.0 | 0.00 | 0.00 | 0.00 | 75 | 1014.0 |
| 20260509025527 | 16 | 0 | 0.0 | 0.0 | 0.00 | 0.00 | 0.00 | 74 | 1014.2 |
| 20260509025028 | 16 | 0 | 0.0 | 0.0 | 0.00 | 0.00 | 0.00 | 73 | 1014.0 |
| 20260509024538 | 16 | 0 | 0.0 | 1.6 | 0.00 | 0.00 | 0.00 | 73 | 1014.1 |
| 20260509024030 | 16 | 0 | 0.0 | 1.6 | 0.00 | 0.00 | 0.00 | 72 | 1014.0 |
| 20260509023530 | 16 | 199 | 0.0 | 1.6 | 0.00 | 0.00 | 0.00 | 72 | 1014.1 |
| 20260509023039 | 17 | 0 | 0.0 | 4.8 | 0.00 | 0.00 | 0.00 | 72 | 1014.4 |
| 20260509022530 | 17 | 0 | 0.0 | 4.8 | 0.00 | 0.00 | 0.00 | 71 | 1014.1 |
| 20260509022030 | 17 | 200 | 0.0 | 6.4 | 0.00 | 0.00 | 0.00 | 71 | 1014.3 |
| 20260509021544 | 17 | 0 | 0.0 | 8.0 | 0.00 | 0.00 | 0.00 | 71 | 1014.1 |
| 20260509021030 | 17 | 207 | 3.2 | 8.0 | 0.00 | 0.00 | 0.00 | 71 | 1014.3 |
| 20260509020533 | 17 | 190 | 1.6 | 6.4 | 0.00 | 0.00 | 0.00 | 70 | 1014.3 |
| 20260509020042 | 17 | 188 | 0.0 | 6.4 | 0.00 | 0.00 | 0.00 | 70 | 1014.1 |
| 20260509015533 | 17 | 0 | 1.6 | 4.8 | 0.00 | 0.00 | 0.00 | 70 | 1013.9 |
| 20260509015033 | 17 | 217 | 1.6 | 6.4 | 0.00 | 0.00 | 0.00 | 69 | 1014.1 |
| 20260509014542 | 17 | 221 | 1.6 | 8.0 | 0.00 | 0.00 | 0.00 | 69 | 1014.1 |
| 20260509014035 | 17 | 218 | 3.2 | 9.7 | 0.00 | 0.00 | 0.00 | 69 | 1013.9 |
| 20260509013530 | 17 | 202 | 3.2 | 9.7 | 0.00 | 0.00 | 0.00 | 69 | 1014.0 |
| 20260509013041 | 17 | 197 | 1.6 | 4.8 | 0.00 | 0.00 | 0.00 | 69 | 1013.9 |
| 20260509012532 | 17 | 197 | 1.6 | 4.8 | 0.00 | 0.00 | 0.00 | 69 | 1014.0 |
| 20260509012030 | 17 | 0 | 0.0 | 6.4 | 0.00 | 0.00 | 0.00 | 68 | 1013.9 |
| 20260509011538 | 17 | 0 | 1.6 | 6.4 | 0.00 | 0.00 | 0.00 | 68 | 1013.7 |
| 20260509011031 | 17 | 203 | 0.0 | 6.4 | 0.00 | 0.00 | 0.00 | 67 | 1013.7 |
| 20260509010530 | 17 | 198 | 0.0 | 3.2 | 0.00 | 0.00 | 0.00 | 67 | 1013.8 |
| 20260509010046 | 18 | 0 | 0.0 | 3.2 | 0.00 | 0.00 | 0.00 | 67 | 1013.8 |
| 20260509005531 | 18 | 0 | 0.0 | 3.2 | 0.00 | 0.00 | 0.00 | 67 | 1013.8 |
| 20260509005030 | 18 | 201 | 0.0 | 3.2 | 0.00 | 0.00 | 0.00 | 66 | 1013.7 |
| 20260509004541 | 18 | 0 | 0.0 | 3.2 | 0.00 | 0.00 | 0.00 | 66 | 1013.7 |
| 20260509004028 | 18 | 0 | 0.0 | 4.8 | 0.00 | 0.00 | 0.00 | 66 | 1013.8 |
| 20260509003532 | 18 | 201 | 0.0 | 6.4 | 0.00 | 0.00 | 0.00 | 65 | 1013.8 |
| 20260509003041 | 18 | 201 | 1.6 | 6.4 | 0.00 | 0.00 | 0.00 | 65 | 1013.8 |
| 20260509002530 | 18 | 200 | 3.2 | 6.4 | 0.00 | 0.00 | 0.00 | 64 | 1013.9 |
| 20260509002031 | 18 | 200 | 3.2 | 6.4 | 0.00 | 0.00 | 0.00 | 64 | 1013.9 |
| 20260509001540 | 18 | 207 | 1.6 | 4.8 | 0.00 | 0.00 | 0.00 | 64 | 1013.8 |
| 20260509001030 | 18 | 0 | 1.6 | 4.8 | 0.00 | 0.00 | 0.00 | 64 | 1013.8 |
| 20260509000530 | 18 | 206 | 1.6 | 4.8 | 0.00 | 0.00 | 0.00 | 64 | 1013.8 |
| 20260509000037 | 18 | 207 | 0.0 | 6.4 | 0.00 | 0.00 | 0.00 | 63 | 1013.9 |
| 20260508235531 | 18 | 207 | 1.6 | 6.4 | 0.00 | 0.05 | 0.00 | 63 | 1013.9 |
| 20260508235032 | 19 | 0 | 1.6 | 6.4 | 0.00 | 0.05 | 0.00 | 63 | 1013.9 |
| 20260508234546 | 19 | 0 | 0.0 | 6.4 | 0.00 | 0.05 | 0.00 | 62 | 1013.7 |
| 20260508234028 | 19 | 207 | 3.2 | 6.4 | 0.00 | 0.05 | 0.00 | 61 | 1013.8 |
| 20260508233534 | 19 | 208 | 1.6 | 4.8 | 0.00 | 0.05 | 0.00 | 61 | 1013.8 |
| 20260508233040 | 19 | 207 | 1.6 | 8.0 | 0.00 | 0.05 | 0.00 | 61 | 1013.7 |
| 20260508232530 | 19 | 207 | 3.2 | 8.0 | 0.00 | 0.05 | 0.00 | 61 | 1013.6 |
| 20260508232027 | 19 | 201 | 0.0 | 4.8 | 0.00 | 0.05 | 0.00 | 61 | 1013.5 |
| 20260508231555 | 19 | 219 | 0.0 | 8.0 | 0.00 | 0.05 | 0.00 | 61 | 1013.5 |
| 20260508231032 | 20 | 219 | 1.6 | 8.0 | 0.00 | 0.05 | 0.00 | 60 | 1013.5 |
| 20260508230528 | 20 | 0 | 3.2 | 8.0 | 0.00 | 0.05 | 0.00 | 60 | 1013.4 |
| 20260508230054 | 20 | 225 | 1.6 | 4.8 | 0.00 | 0.05 | 0.00 | 60 | 1013.4 |
| 20260508225535 | 20 | 136 | 1.6 | 4.8 | 0.00 | 0.13 | 0.00 | 59 | 1013.3 |
| 20260508225029 | 20 | 132 | 0.0 | 4.8 | 0.00 | 0.13 | 0.00 | 59 | 1013.3 |
| 20260508224550 | 20 | 0 | 0.0 | 8.0 | 0.00 | 0.13 | 0.00 | 59 | 1013.3 |
| 20260508224029 | 20 | 0 | 1.6 | 8.0 | 0.00 | 0.13 | 0.00 | 59 | 1013.3 |
| 20260508223528 | 20 | 165 | 1.6 | 8.0 | 0.00 | 0.13 | 0.00 | 58 | 1013.5 |
| 20260508223046 | 20 | 158 | 0.0 | 3.2 | 0.00 | 0.13 | 0.00 | 57 | 1013.6 |
| 20260508222529 | 20 | 0 | 0.0 | 3.2 | 0.00 | 0.13 | 0.00 | 56 | 1013.5 |
| 20260508222027 | 20 | 0 | 0.0 | 6.4 | 0.00 | 0.13 | 0.00 | 55 | 1013.4 |
| 20260508221548 | 20 | 0 | 0.0 | 6.4 | 0.00 | 0.13 | 0.00 | 56 | 1013.3 |
| 20260508221028 | 20 | 0 | 0.0 | 8.0 | 0.00 | 0.13 | 0.00 | 54 | 1013.6 |
| 20260508220533 | 20 | 159 | 1.6 | 8.0 | 0.00 | 0.13 | 0.00 | 55 | 1013.8 |
| 20260508220045 | 20 | 158 | 1.6 | 6.4 | 0.00 | 0.13 | 0.00 | 55 | 1013.8 |
| 20260508215534 | 20 | 0 | 0.0 | 4.8 | 0.00 | 0.23 | 0.00 | 54 | 1013.6 |
| 20260508215032 | 20 | 0 | 0.0 | 4.8 | 0.00 | 0.23 | 0.00 | 54 | 1013.6 |
| 20260508214618 | 20 | 0 | 0.0 | 4.8 | 0.00 | 0.23 | 0.00 | 55 | 1013.6 |
| 20260508214034 | 20 | 0 | 1.6 | 4.8 | 0.00 | 0.23 | 0.00 | 55 | 1013.5 |
| 20260508213530 | 20 | 125 | 0.0 | 4.8 | 0.00 | 0.23 | 0.00 | 55 | 1013.6 |
| 20260508213053 | 21 | 0 | 0.0 | 4.8 | 0.00 | 0.23 | 0.00 | 54 | 1013.7 |
| 20260508212533 | 21 | 0 | 0.0 | 4.8 | 0.00 | 0.23 | 0.00 | 53 | 1013.5 |
| 20260508212036 | 21 | 121 | 0.0 | 4.8 | 0.00 | 0.23 | 0.00 | 55 | 1013.5 |
| 20260508211543 | 21 | 0 | 1.6 | 4.8 | 0.00 | 0.23 | 0.00 | 52 | 1013.5 |
| 20260508211032 | 20 | 121 | 0.0 | 6.4 | 0.00 | 0.23 | 0.00 | 52 | 1013.6 |
| 20260508210530 | 20 | 121 | 1.6 | 6.4 | 0.00 | 0.23 | 0.00 | 51 | 1013.7 |
| 20260508210054 | 21 | 0 | 0.0 | 6.4 | 0.00 | 0.23 | 0.00 | 51 | 1013.6 |
| 20260508205529 | 20 | 0 | 0.0 | 6.4 | 0.00 | 0.38 | 0.00 | 50 | 1013.7 |
| 20260508205034 | 21 | 107 | 1.6 | 4.8 | 0.00 | 0.38 | 0.00 | 49 | 1013.6 |
| 20260508204543 | 21 | 117 | 0.0 | 4.8 | 0.00 | 0.38 | 0.00 | 50 | 1013.6 |
| 20260508204030 | 21 | 119 | 0.0 | 6.4 | 0.00 | 0.38 | 0.00 | 50 | 1013.8 |
| 20260508203532 | 21 | 118 | 1.6 | 6.4 | 0.00 | 0.38 | 0.00 | 51 | 1014.0 |
| 20260508203105 | 21 | 0 | 1.6 | 6.4 | 0.00 | 0.38 | 0.00 | 48 | 1013.8 |
| 20260508202532 | 21 | 0 | 1.6 | 9.7 | 0.00 | 0.38 | 0.00 | 48 | 1013.9 |
| 20260508202030 | 21 | 0 | 3.2 | 9.7 | 0.00 | 0.38 | 0.00 | 49 | 1014.1 |
| 20260508201546 | 21 | 128 | 1.6 | 6.4 | 0.00 | 0.38 | 0.00 | 49 | 1014.0 |
| 20260508201033 | 21 | 132 | 1.6 | 4.8 | 0.00 | 0.38 | 0.00 | 49 | 1013.8 |
| 20260508200533 | 21 | 0 | 1.6 | 4.8 | 0.00 | 0.38 | 0.00 | 48 | 1014.0 |
| 20260508200043 | 21 | 0 | 1.6 | 4.8 | 0.00 | 0.38 | 0.00 | 48 | 1013.7 |
| 20260508195535 | 21 | 131 | 0.0 | 3.2 | 0.00 | 0.58 | 0.00 | 48 | 1013.9 |
| 20260508195029 | 21 | 0 | 0.0 | 4.8 | 0.00 | 0.58 | 0.00 | 46 | 1013.9 |
| 20260508194540 | 21 | 134 | 0.0 | 9.7 | 0.00 | 0.58 | 0.00 | 47 | 1014.0 |
| 20260508194033 | 21 | 117 | 1.6 | 9.7 | 0.00 | 0.58 | 0.00 | 47 | 1014.2 |
| 20260508193535 | 21 | 77 | 4.8 | 9.7 | 0.00 | 0.58 | 0.00 | 47 | 1014.3 |
| 20260508193051 | 21 | 0 | 0.0 | 6.4 | 0.00 | 0.58 | 0.00 | 47 | 1014.7 |
| 20260508192529 | 21 | 78 | 1.6 | 9.7 | 0.00 | 0.58 | 0.00 | 47 | 1014.6 |
| 20260508192030 | 21 | 146 | 3.2 | 11.3 | 0.00 | 0.58 | 0.00 | 49 | 1014.5 |
| 20260508191548 | 21 | 104 | 4.8 | 11.3 | 0.00 | 0.58 | 0.00 | 48 | 1014.6 |
| 20260508191029 | 21 | 0 | 1.6 | 11.3 | 0.00 | 0.58 | 0.00 | 48 | 1014.5 |
| 20260508190529 | 21 | 90 | 1.6 | 11.3 | 0.00 | 0.58 | 0.00 | 48 | 1014.8 |
| 20260508190044 | 21 | 75 | 4.8 | 11.3 | 0.00 | 0.58 | 0.00 | 48 | 1014.8 |
| 20260508185533 | 21 | 94 | 3.2 | 11.3 | 0.00 | 0.84 | 0.00 | 49 | 1015.0 |
| 20260508185036 | 21 | 128 | 4.8 | 11.3 | 0.00 | 0.84 | 0.00 | 49 | 1015.1 |
| 20260508184542 | 21 | 113 | 3.2 | 12.9 | 0.00 | 0.84 | 0.00 | 48 | 1015.1 |
| 20260508184029 | 21 | 132 | 4.8 | 12.9 | 0.00 | 0.84 | 0.00 | 49 | 1015.1 |
| 20260508183529 | 21 | 182 | 3.2 | 9.7 | 0.00 | 0.84 | 0.00 | 49 | 1015.1 |
| 20260508183041 | 21 | 179 | 3.2 | 8.0 | 0.00 | 0.84 | 0.00 | 50 | 1015.4 |
| 20260508182529 | 21 | 0 | 3.2 | 8.0 | 0.00 | 0.84 | 0.00 | 49 | 1015.5 |
| 20260508182028 | 21 | 208 | 3.2 | 8.0 | 0.00 | 0.84 | 0.00 | 51 | 1015.3 |
| 20260508181543 | 21 | 188 | 0.0 | 9.7 | 0.00 | 0.84 | 0.00 | 51 | 1015.5 |
| 20260508181028 | 21 | 0 | 3.2 | 16.1 | 0.00 | 0.84 | 0.00 | 49 | 1015.5 |
| 20260508180528 | 21 | 143 | 4.8 | 16.1 | 0.00 | 0.84 | 0.00 | 51 | 1015.3 |
| 20260508180042 | 21 | 177 | 6.4 | 14.5 | 0.00 | 0.84 | 0.00 | 50 | 1015.4 |
| 20260508175528 | 22 | 157 | 3.2 | 9.7 | 0.00 | 1.12 | 0.00 | 50 | 1015.8 |
| 20260508175030 | 22 | 299 | 3.2 | 12.9 | 0.00 | 1.12 | 0.00 | 49 | 1015.6 |
| 20260508174542 | 22 | 191 | 4.8 | 12.9 | 0.00 | 1.12 | 0.00 | 51 | 1015.7 |
| 20260508174029 | 22 | 183 | 6.4 | 12.9 | 0.00 | 1.12 | 0.00 | 52 | 1015.7 |
| 20260508173529 | 22 | 195 | 4.8 | 11.3 | 0.00 | 1.12 | 0.00 | 54 | 1015.7 |
| 20260508173041 | 21 | 225 | 3.2 | 11.3 | 0.00 | 1.12 | 0.00 | 53 | 1015.8 |
| 20260508172529 | 21 | 267 | 3.2 | 16.1 | 0.00 | 1.12 | 0.00 | 54 | 1015.8 |
| 20260508172030 | 21 | 192 | 4.8 | 17.7 | 0.00 | 1.12 | 0.00 | 52 | 1016.0 |
| 20260508171542 | 21 | 186 | 6.4 | 17.7 | 0.00 | 1.12 | 0.00 | 54 | 1016.1 |
| 20260508171031 | 20 | 0 | 4.8 | 12.9 | 0.00 | 1.12 | 0.00 | 54 | 1016.0 |
| 20260508170528 | 20 | 52 | 4.8 | 17.7 | 0.00 | 1.12 | 0.00 | 54 | 1016.2 |
| 20260508170042 | 20 | 180 | 3.2 | 17.7 | 0.00 | 1.12 | 0.00 | 54 | 1016.1 |
| 20260508165530 | 21 | 161 | 8.0 | 16.1 | 0.00 | 1.42 | 0.00 | 57 | 1016.4 |
| 20260508165030 | 21 | 100 | 1.6 | 12.9 | 0.00 | 1.42 | 0.00 | 58 | 1016.4 |
| 20260508164543 | 20 | 136 | 4.8 | 12.9 | 0.00 | 1.42 | 0.00 | 57 | 1016.6 |
| 20260508164030 | 20 | 215 | 4.8 | 11.3 | 0.00 | 1.42 | 0.00 | 58 | 1016.7 |
| 20260508163530 | 20 | 228 | 4.8 | 14.5 | 0.00 | 1.42 | 0.00 | 58 | 1016.7 |
| 20260508163045 | 20 | 0 | 4.8 | 14.5 | 0.00 | 1.42 | 0.00 | 56 | 1016.8 |
| 20260508162530 | 20 | 120 | 6.4 | 14.5 | 0.00 | 1.42 | 0.00 | 57 | 1016.6 |
| 20260508162032 | 20 | 52 | 4.8 | 14.5 | 0.00 | 1.42 | 0.00 | 59 | 1017.0 |
| 20260508161543 | 20 | 0 | 4.8 | 14.5 | 0.00 | 1.42 | 0.00 | 61 | 1017.0 |
| 20260508161030 | 20 | 0 | 8.0 | 14.5 | 0.00 | 1.42 | 0.00 | 60 | 1017.1 |
| 20260508160531 | 20 | 84 | 3.2 | 14.5 | 0.00 | 1.42 | 0.00 | 62 | 1017.5 |
| 20260508160042 | 20 | 124 | 4.8 | 14.5 | 0.00 | 1.42 | 0.00 | 63 | 1017.4 |
| 20260508155529 | 20 | 94 | 4.8 | 14.5 | 0.00 | 1.83 | 0.00 | 63 | 1017.4 |
| 20260508155030 | 20 | 216 | 6.4 | 14.5 | 0.00 | 1.83 | 0.00 | 64 | 1017.4 |
| 20260508154540 | 19 | 138 | 8.0 | 14.5 | 0.00 | 1.83 | 0.00 | 64 | 1017.5 |
| 20260508154030 | 18 | 61 | 1.6 | 14.5 | 0.00 | 1.83 | 0.00 | 65 | 1017.6 |
| 20260508153530 | 18 | 141 | 6.4 | 14.5 | 0.00 | 1.83 | 0.00 | 65 | 1017.7 |
| 20260508153042 | 18 | 141 | 3.2 | 12.9 | 0.00 | 1.83 | 0.00 | 68 | 1017.6 |
| 20260508152530 | 18 | 149 | 3.2 | 12.9 | 0.00 | 1.83 | 0.00 | 68 | 1017.7 |
| 20260508152030 | 18 | 131 | 6.4 | 12.9 | 0.00 | 1.83 | 0.00 | 69 | 1017.8 |
| 20260508151543 | 18 | 321 | 1.6 | 9.7 | 0.00 | 1.83 | 0.00 | 72 | 1017.8 |
| 20260508151030 | 17 | 244 | 1.6 | 9.7 | 0.00 | 1.83 | 0.00 | 72 | 1017.8 |
| 20260508150529 | 17 | 57 | 3.2 | 8.0 | 0.00 | 1.83 | 0.00 | 72 | 1017.8 |
| 20260508150042 | 17 | 76 | 1.6 | 9.7 | 0.00 | 1.83 | 0.00 | 74 | 1017.8 |
| 20260508145530 | 16 | 72 | 3.2 | 9.7 | 0.00 | 2.26 | 0.00 | 73 | 1017.8 |
| 20260508145028 | 16 | 89 | 1.6 | 6.4 | 0.00 | 2.26 | 0.00 | 74 | 1017.8 |
| 20260508144540 | 16 | 0 | 1.6 | 8.0 | 0.00 | 2.26 | 0.00 | 75 | 1017.9 |
| 20260508144030 | 16 | 62 | 0.0 | 8.0 | 0.00 | 2.26 | 0.00 | 76 | 1018.0 |
| 20260508143531 | 16 | 62 | 3.2 | 8.0 | 0.00 | 2.26 | 0.00 | 75 | 1017.9 |
| 20260508143040 | 16 | 108 | 3.2 | 6.4 | 0.00 | 2.26 | 0.00 | 77 | 1017.9 |
| 20260508142532 | 15 | 92 | 0.0 | 6.4 | 0.00 | 2.26 | 0.00 | 78 | 1017.7 |
| 20260508142030 | 15 | 0 | 1.6 | 6.4 | 0.00 | 2.26 | 0.00 | 79 | 1017.7 |
| 20260508141539 | 15 | 82 | 1.6 | 4.8 | 0.00 | 2.26 | 0.00 | 79 | 1017.7 |
| 20260508141031 | 15 | 0 | 0.0 | 6.4 | 0.00 | 2.26 | 0.00 | 80 | 1017.7 |
| 20260508140531 | 14 | 0 | 0.0 | 6.4 | 0.00 | 2.26 | 0.00 | 80 | 1017.6 |
| 20260508140042 | 14 | 28 | 0.0 | 8.0 | 0.00 | 2.26 | 0.00 | 81 | 1017.6 |
| 20260508135532 | 14 | 41 | 1.6 | 8.0 | 0.00 | 2.64 | 0.00 | 80 | 1017.7 |
| 20260508135030 | 14 | 44 | 3.2 | 8.0 | 0.00 | 2.64 | 0.00 | 81 | 1017.8 |
| 20260508134545 | 14 | 51 | 3.2 | 6.4 | 0.00 | 2.64 | 0.00 | 82 | 1017.6 |
| 20260508134029 | 13 | 26 | 0.0 | 4.8 | 0.00 | 2.64 | 0.00 | 84 | 1017.7 |
| 20260508133532 | 13 | 5 | 0.0 | 4.8 | 0.00 | 2.64 | 0.00 | 84 | 1017.7 |
| 20260508133043 | 13 | 5 | 1.6 | 4.8 | 0.00 | 2.64 | 0.00 | 84 | 1017.9 |
| 20260508132529 | 13 | 360 | 0.0 | 4.8 | 0.00 | 2.64 | 0.00 | 85 | 1017.9 |
| 20260508132030 | 13 | 0 | 0.0 | 1.6 | 0.00 | 2.64 | 0.00 | 86 | 1017.9 |
| 20260508131542 | 12 | 0 | 0.0 | 4.8 | 0.00 | 2.64 | 0.00 | 87 | 1017.8 |
| 20260508131030 | 12 | 0 | 0.0 | 4.8 | 0.00 | 2.64 | 0.00 | 87 | 1017.9 |
| 20260508130531 | 12 | 325 | 1.6 | 4.8 | 0.00 | 2.64 | 0.00 | 88 | 1017.9 |
| 20260508130036 | 12 | 325 | 1.6 | 3.2 | 0.00 | 2.64 | 0.00 | 88 | 1018.0 |
| 20260508125528 | 12 | 0 | 0.0 | 3.2 | 0.00 | 2.97 | 0.00 | 90 | 1018.0 |